Weather Roundup
Issued by NWS

Home | Current Version | Previous Version | Graphics & Text | Print | Product List | Glossary Off
Versions: 1 2 3 4 5 6 7 8 9 10 11 12 13 14 15 16 17 18 19 20 21 22 23 24 25 26 27 28 29 30 31 32 33 34 35 36 37 38 39 40 41 42 43 44 45 46 47 48 49 50

357
NZUS93 KARX 260610
HRRWXR

CURRENT HOURLY OBSERVATIONS ACROSS
MUCH OF THE UPPER MISSISSIPPI VALLEY
NATIONAL WEATHER SERVICE LA CROSSE WI
100 AM CDT SUN MAR 26 2017


...SOUTHEAST MINNESOTA...


CITY           SKY/WX    TMP DP  RH WIND       PRES   REMARKS
ROCHESTER      FOG       35  35 100 E10       29.95F VSB 3/4 WCI  27
ROCHESTER/MAYO CLOUDY    35  35 100 E8        29.97F WCI  29
WINONA         CLOUDY    36  34  93 E6        30.00F WCI  31
AUSTIN         CLOUDY    36  34  93 E7        29.94F WCI  30
ALBERT LEA     CLOUDY    36  36 100 E8        29.95S FOG     WCI  29
DODGE CENTER   CLOUDY    36  34  93 E8        29.96F FOG     WCI  29
PRESTON        FOG       34  33  96 NE7       29.95F VSB 1/2 WCI  28
OWATONNA       DRIZZLE   36  34  93 E10       29.97F WCI  28
FARIBAULT      DRIZZLE   36  36 100 NE6       29.98F WCI  31
$$

...ELSEWHERE IN MINNESOTA...


CITY           SKY/WX    TMP DP  RH WIND       PRES   REMARKS
MINNEAPOLIS    LGT RAIN  38  35  89 E7        30.01F WCI  33
INTNL FALLS    CLOUDY    31  25  78 VRB6      30.07F WCI  25
DULUTH         FRZ DRZL  31  31 100 E13G21    30.05F FOG     WCI  21
RED WING       LGT RAIN  37  34  87 E5        29.99F WCI  34
REDWOOD FALLS  CLOUDY    39  34  82 E8        29.98F WCI  33
MANKATO        LGT RAIN  37  36  96 NE7       29.98F WCI  32
WORTHINGTON    CLOUDY    36  35  96 NE8       29.95F WCI  30
FAIRMONT       MIX PCPN  37  36  96 NE7       29.95F FOG     WCI  32
$$

...SOUTHWEST WISCONSIN...


CITY           SKY/WX    TMP DP  RH WIND       PRES   REMARKS
LA CROSSE      CLOUDY    38  36  92 NE8       29.99F WCI  32
PRAIRIE DU CHI CLOUDY    39  38  97 NE7       29.94F WCI  34
BOSCOBEL       LGT RAIN  40  38  93 NE6       29.95F FOG
LONE ROCK      CLOUDY    40  37  89 E10       29.96F FOG     WCI  33
PLATTEVILLE    CLOUDY    40  40 100 NE12      29.91F WCI  33
FORT MC COY    CLOUDY    35  35  99 E7        29.99F FOG     WCI  29
CAMP DOUGLAS   CLOUDY    36  36 100 E7        29.99F FOG     WCI  30
MAUSTON-NEW LI CLOUDY    36  35  98 E5        29.99F FOG     WCI  32
VIROQUA        CLOUDY    36  36 100 E13G18    29.95F WCI  27
WIS DELLS      DRIZZLE   36  36  97 E8        29.97F WCI  30
$$

...ELSEWHERE IN WISCONSIN...


CITY           SKY/WX    TMP DP  RH WIND       PRES   REMARKS
MILWAUKEE      LGT RAIN  39  37  92 NE13      29.99F FOG     WCI  31
MADISON        CLOUDY    39  38  96 NE10      29.96F WCI  32
GREEN BAY      LGT RAIN  35  35 100 NE13      30.06F FOG     WCI  26
EAU CLAIRE     MIX PCPN  35  34  96 E6        30.01F FOG     WCI  30
BLACK RVR FLS  CLOUDY    35  35 100 E7        30.00F FOG     WCI  29
MEDFORD        CLOUDY    32  31  96 E9G16     30.01F WCI  24
WAUSAU         CLOUDY    32  32 100 E8        30.03F WCI  25
WIS RAPIDS     LGT RAIN  34  34 100 E9        30.02F FOG     WCI  27
MARSHFIELD     CLOUDY    33  31  92 E14       30.00F FOG     WCI  23
RICE LAKE      CLOUDY    36  34  93 CALM      30.04F
$$

...NORTHEAST IOWA...


CITY           SKY/WX    TMP DP  RH WIND       PRES   REMARKS
WATERLOO       CLOUDY    39  38  96 NE9       29.90F FOG     WCI  33
DUBUQUE        FOG       40  40 100 NE16      29.88F VSB 3/4 WCI  31
DECORAH        LGT RAIN  37  37 100 NE10      29.92F WCI  30
MASON CITY     CLOUDY    37  36  96 NE10      29.93F FOG     WCI  30
CHARLES CITY   FOG       37  37 100 NE12      29.92F VSB 1/2 WCI  30
OELWEIN        MIX PCPN  39  39 100 NE13      29.89F WCI  32
$$

...ELSEWHERE IN IOWA...


CITY           SKY/WX    TMP DP  RH WIND       PRES   REMARKS
DES MOINES     DRIZZLE   42  41  96 NE10      29.87F FOG
IOWA CITY      CLOUDY    45  43  93 NE7       29.86F FOG
FORT DODGE     CLOUDY    37  36  93 N6        29.92F WCI  33
MARSHALLTOWN   CLOUDY    40  40 100 NE10      29.88F FOG     WCI  33
CEDAR RAPIDS   CLOUDY    42  32  67 NE13      29.85S FOG
$$

...NORTHERN ILLINOIS...


CITY           SKY/WX    TMP DP  RH WIND       PRES   REMARKS
CHICAGO-OHARE  CLOUDY    47  44  90 NE8       29.92F FOG
CHICAGO-MIDWAY LGT RAIN  49  47  93 VRB7      29.92F FOG
MOLINE         CLOUDY    47  45  93 E8        29.84F FOG
ROCKFORD       CLOUDY    46  44  93 E8        29.92F FOG
PEORIA         CLOUDY    59  56  89 SE8       29.83F
$$

NOTE: "FAIR" INDICATES FEW OR NO CLOUDS BELOW 12,000 FEET WITH NO
SIGNIFICANT WEATHER AND/OR OBSTRUCTIONS TO VISIBILITY. WIND
SPEEDS ARE IN MILES-PER-HOUR.




USA.gov is the U.S. government's official web portal to all federal, state and local government web resources and services.